National Oceanic Atmosphere Administration National Weather Service Headquarters National Weather Service Headquarters
NOAA logo WFO Anchorage Scalable transition graphic NWS logo
Transition from title bar to navgation bar   Aviation Weather 12 AKDT 
blankspace Home   |   Mobile   |   Social Media   |   Mesonet   |   Surface Map   |   Radar   |   Submit Storm Reports   |   News =20 GMT 

LocalForecast by City, St or Zip Code

spacer

Forecasts/Products
  Public
  Forecast Discussion
    - With Glossary
  Aviation
  Marine
  Hydrology(RFC)
  Rivers & Lakes AHPS
  Ice Desk
  TV Weather
  Fire Weather
  Avalanche
  Travel 511
  Graphical
  xml logo RSS Feeds
  Marine FTPMail

spacer

Data
  Mesonet
  Model Graphics
  Local Model
  Observations
  Marine Obs
  Satellite/Radar
  Vent Factor
  Soaring Index
  Weather Links

spacer

Climate
  PAFC Climate
  Interactive Climate
  PAFC Records
  Local
  National
  More

spacer

Outreach
  About Us
  Community Outreach
  Kids' Page
  Tour/Speaker Request
  Weather Classroom
  Social Media

spacer

Reports
  COOP Observers
  Local Storm Reports
  Spotter Page
  Submit a Storm Report

spacer

Miscellaneous
  Archived Alaska Weather Stories
  Student Career Opportunities
  Research Papers

spacer

Print Friendly/
Low Bandwidth

  Public Forecasts
  Marine Forecasts

spacer

Contact Us
  mailto pafcweb

spacer

Facebook Follow the National Weather Service in Alaska on Twitter
USA.gov is the U.S. government's official web portal to all federal, state and local government web resources and services.


** Important notice for upcoming changes to NWS Anchorage web site ** Read more...
 ICAO ID:   AAWU Graphics

Internet access to TAFs and METAR observations is for planning purposes only. We can not guarantee the timeliness of internet products. Before flying please get a formal pilot briefing (1-800-992-7433) and ALWAYS file a Flight Plan!Pilot briefings are provided to licensed aircraft pilots, ONLY! Others may not use the above number to obtain weather information.

Check out the Key to TAFs and METARs for help with decoding the information.

A 12 hour summary of TAFs can be found here.

PAFA TAF
PAFA 271929Z 2719/2824 23005KT P6SM -RA SCT015 BKN025
      OVC040
     FM272200 23008KT P6SM -SHRA VCTS SCT025 BKN050CB OVC100
     FM280400 23005KT P6SM -SHRA SCT025 BKN050 OVC080
     FM280800 VRB04KT P6SM VCSH SCT025 SCT050 BKN100=


METAR PAFA 271953Z 23009G16KT 6SM -RA BR SCT010 BKN018 OVC035 14/13
     A3004 RMK AO2 SLP175 CIG LWR W-N P0005 T01440128=
METAR PAFA 271953Z 23009G16KT 6SM -RA BR SCT010 BKN018 OVC035 14/13
     A3004=
METAR PAFA 271853Z 22006KT 6SM -RA BR FEW010 SCT018 OVC038 14/13 A3003
     RMK AO2 SLP174 CIG LWR SW-N P0005 T01390133=
METAR PAFA 271853Z 22006KT 6SM -RA BR FEW010 SCT018 OVC038 14/13
     A3003=
METAR PAFA 271753Z 20005KT 7SM -RA FEW010 SCT018 OVC028 14/13 A3003
 RMK AO2 SLP172 CIG LWR SW-NW P0004 60022 T01390128 10139 20128
 52009=
METAR PAFA 271753Z 20005KT 7SM -RA FEW010 SCT018 OVC028 14/13 A3003=
METAR PAFA 271653Z 20010KT 8SM -RA FEW018 BKN027 OVC070 13/12 A3002 RMK
     AO2 SLP169 CIG LWR SW-NW P0004 T01330122=
METAR PAFA 271653Z 20010KT 8SM -RA FEW018 BKN027 OVC070 13/12 A3002=
SPECI PAFA 271615Z 20007KT 3SM -RA BR FEW018 BKN025 OVC040 13/13 A3001
     RMK AO2 CIG LWR W-N P0002 T01330128=
PAFA 271615Z 20007KT 3SM -RA BR FEW018 BKN025 OVC040 13/13 A3001=


National Weather Service
Anchorage Forecast Office
6930 Sand Lake Road
Anchorage, Ak 99502
(907) 266-5105 M-F/7-5pm
About Us
Career Opportunities
Glossary
Disclaimer
Privacy Policy
Credits
Alaska Weather Information Line:
1-800-472-0391